Probability
0 0 0 0 0 0 0 0 0 0 0 0 0 0 0 0 0 0 0 0 0 0 0 0 0 0 0 0 0 0 0 0 0 0 0 0 0 0 0 0 0 0 0 0
0 0 0 0 0 0 0 0 0 0 0 0 0 0 0 0 0 0 0 0 0 0 0 0 0 0 0 0 0 0 0 0 0 0 0 0 0 0 0 0 0 0 0 0
0 0 0 0 0 0 0 0 0 0 0 0 0 0 0 0 0 0 0 0 0 0 0 0 0 0 0 0 0 0 0 0 0 0 0 0 0 0 0 0 0 0 0 0
0 0 0 0 0 0 0 0 0 0 0 0 0 0 0 0 0 0 0 0 0 0 0 0 0 0 0 0 0 0 0 0 0 0 0 0 0 0 0 0 0 0 0 0
0 0 0 0 0 0 0 0 0 0 0 0 0 0 0 0 0 0 0 0 0 0 0 0 0 0 0 0 0 0 0 0 0 0 0 0 0 0 0 0 0 0 0 0
0 0 0 0 0 0 0 0 0 0 0 0 0 0 0 0 0 0 0 0 0 0 0 0 0 0 0 0 0 0 0 0 0 0 0 0 0 0 0 0 0 0 0 0
0 0 0 0 0 0 0 0 0 0 0 0 0 0 0 0 0 0 0 0 0 0 0 0 0 0 0 0 0 0 0 0 0 0 0 0 0 0 0 0 0 0 0 0
0 0 0 0 0 0 0 0 0 0 0 0 0 0 0 0 0 0 0 0 0 0 0 0 0 0 0 0 0 0 0 0 0 0 0 0 0 0 0 0 0 0 0 0
0 0 0 0 0 0 0 0 0 0 0 0 0 0 0 0 0 0 0 0 0 0 0 0 0 0 0 0 0 0 0 0 0 0 0 0 0 0 0 0 0 0 0 0
0 0 0 0 0 0 0 0 0 0 0 0 0 0 0 0 0 0 0 0 0 0 0 0 0 0 0 0 0 0 0 0 0 0 0 0 0 0 0 0 0 0 0 0
0 0 0 0 0 0 0 0 0 0 0 0 0 0 0 0 0 0 0 0 0 0 0 0 0 0 0 0 0 0 0 0 0 0 0 0 0 0 0 0 0 0 0 0
0 0 0 0 0 0 0 0 0 0 0 0 0 0 0 0 0 0 0 0 0 0 0 0 0 0 0 0 0 0 0 0 0 0 0 0 0 0 0 0 0 0 0 0
0 0 0 0 0 0 0 0 0 0 0 0 0 0 0 0 0 0 0 0 0 0 0 0 0 0 0 0 0 0 0 0 0 0 0 0 0 0 0 0 0 0 0 0
0 0 0 0 0 0 0 0 0 0 0 0 0 0 0 0 0 0 0 0 0 0 0 0 0 0 0 0 0 0 0 0 0 0 0 0 0 0 0 0 0 0 0 0
0 0 0 0 0 0 0 0 0 0 0 0 0 0 0 0 0 0 0 0 0 0 0 0 0 0 0 0 0 0 0 0 0 0 0 0 0 0 0 0 0 0 0 0
0 0 0 0 0 0 0 0 0 0 0 0 0 0 0 0 0 0 0 0 0 0 0 0 0 0 0 0 0 0 0 0 0 0 0 0 0 0 0 0 0 0 0 0
0 0 0 0 0 0 0 0 0 0 0 0 0 0 0 0 0 0 0 0 0 0 0 0 0 0 0 0 0 0 0 0 0 0 0 0 0 0 0 0 0 0 0 0
0 0 0 0 0 0 0 0 0 0 0 0 0 0 0 0 0 0 0 0 0 0 0 0 0 0 0 0 0 0 0 0 0 0 0 0 0 0 0 0 0 0 0 0
0 0 0 0 0 0 0 0 0 0 0 0 0 0 0 0 0 0 0 0 0 0 0 0 0 0 0 0 0 0 0 0 0 0 0 0 0 0 0 0 0 0 0 0
0 0 0 0 0 0 0 0 0 0 0 0 0 0 0 0 0 0 0 0 0 0 0 0 0 0 0 0 0 0 0 0 0 0 0 0 0 0 0 0 0 0 0 0
0 0 0 0 0 0 0 0 0 0 0 0 0 0 0 0 0 0 0 0 0 0 0 0 0 0 0 0 0 0 0 0 0 0 0 0 0 0 0 0 0 0 0 0
0 0 0 0 0 0 0 0 0 0 0 0 0 0 0 0 0 0 0 0 0 0 0 0 0 0 0 0 0 0 0 0 0 0 0 0 0 0 0 0 0 0 0 0
0 0 0 0 0 0 0 0 0 0 0 0 0 0 0 0 0 0 0 0 0 0 0 0 0 0 0 0 0 0 0 0 0 0 0 0 0 0 0 0 0 0 0 0
0 0 0 0 0 0 0 0 0 0 0 0 0 0 0 0 0 0 0 0 0 0 0 0 0 0 0 0 0 0 0 0 0 0 0 0 0 0 0 0 0 0 0 0
0 0 0 0 0 0 0 0 0 0 0 0 0 0 0 0 0 0 0 0 0 0 0 0 0 0 0 0 0 0 0 0 0 0 0 0 0 0 0 0 0 0 0 0
0 0 0 0 0 0 0 0 0 0 0 0 0 0 0 0 0 0 0 0 0 0 0 0 0 0 0 0 0 0 0 0 0 0 0 0 0 0 0 0 0 0 0 0
0 0 0 0 0 0 0 0 0 0 0 0 0 0 0 0 0 0 0 0 0 0 0 0 0 0 0 0 0 0 0 0 0 0 0 0 0 0 0 0 0 0 0 0
Wind_Speed
6 5 8 9 12 14 15 14 11 12 13 13 9 7 6 5 5 4 3 3 3 2 2 2 2 3 3 3 4 4 4 4 5 5 5 6 6 6 6 6 6 5 5 5
6 6 7 7 12 14 15 14 12 9 12 10 6 4 4 4 5 4 4 3 2 1 1 2 2 2 3 3 4 4 4 5 5 6 6 6 7 7 6 6 6 5 5 5
6 5 4 12 15 16 13 11 12 15 16 7 6 8 8 7 6 6 4 3 2 1 1 1 1 2 2 3 4 4 4 5 6 6 6 6 7 7 7 7 6 6 5 5
4 6 13 10 8 12 15 15 14 11 10 9 9 7 4 4 6 5 4 3 2 1 1 1 2 2 3 3 3 4 4 5 6 6 7 7 6 6 7 6 6 6 6 6
6 7 8 7 6 11 13 13 12 13 11 7 6 4 2 3 4 4 3 2 2 1 1 2 3 3 3 3 3 4 4 6 6 7 7 7 6 7 6 6 6 5 5 6
6 7 10 10 6 5 7 10 10 13 12 9 9 8 8 4 4 3 2 2 2 2 2 3 4 4 3 3 4 5 6 7 7 6 6 7 7 6 5 5 5 5 5 5
7 7 9 7 3 7 10 11 6 9 10 10 9 7 4 5 5 4 3 3 3 3 3 3 4 4 3 4 5 6 7 7 6 6 6 6 6 6 5 5 5 5 5 5
7 7 11 4 6 10 7 2 3 4 5 6 5 4 4 5 5 4 3 3 3 4 4 4 5 4 4 4 6 7 7 7 7 7 6 6 6 6 5 5 5 5 5 5
8 7 1 1 3 0 1 3 2 3 4 6 5 4 5 4 4 4 3 3 3 4 4 4 5 4 4 5 6 7 6 6 6 7 6 5 5 6 5 4 4 4 5 5
3 3 2 1 2 3 3 2 2 3 4 5 6 6 5 4 4 3 3 3 3 3 3 3 4 5 4 5 6 6 6 6 6 6 6 5 4 4 4 4 4 4 5 5
3 2 2 1 2 2 3 4 5 5 4 5 6 5 4 4 3 3 3 3 3 2 2 3 4 5 5 6 6 5 5 5 5 5 5 5 4 4 5 4 4 4 4 4
5 5 5 4 3 3 4 4 4 5 5 5 5 5 5 4 3 3 3 3 3 3 3 3 4 4 5 5 5 5 4 5 4 4 4 4 5 5 7 6 8 8 8 7
1 2 3 4 4 4 4 4 5 6 6 6 5 5 5 4 3 3 3 3 3 2 2 3 3 4 5 5 5 4 4 4 4 4 4 4 4 5 6 7 8 9 10 10
2 2 4 3 3 4 5 6 7 8 7 6 6 5 5 4 3 3 3 2 2 2 2 3 3 4 5 5 5 4 4 4 4 4 4 4 4 4 4 5 6 6 8 11
4 2 4 5 5 5 5 5 6 6 5 5 5 4 4 3 2 2 2 2 2 2 2 3 4 5 5 5 5 4 4 3 3 3 3 3 4 4 4 4 5 5 6 7
3 5 6 6 5 4 4 4 4 3 2 3 3 3 3 2 2 1 2 2 2 2 3 3 4 5 5 5 4 4 3 5 4 3 3 3 3 3 3 4 4 5 5 6
5 4 3 4 3 2 2 2 2 2 2 2 1 1 2 2 1 1 2 2 1 2 3 3 4 4 4 4 4 3 3 4 4 3 3 3 3 3 3 3 4 4 4 6
1 2 3 4 4 4 3 2 2 2 2 1 1 1 2 1 0 1 2 2 2 2 3 3 4 3 4 4 3 3 3 3 3 3 3 3 3 3 3 3 4 5 5 6
2 3 3 3 3 3 3 3 2 2 1 2 2 1 0 0 1 1 1 2 2 3 4 4 5 4 4 5 3 2 2 3 3 3 3 3 3 3 3 3 4 4 4 5
3 3 3 3 3 3 3 2 2 2 1 1 2 1 0 1 1 1 1 1 2 3 3 4 4 4 4 4 5 2 2 3 3 3 3 3 3 3 3 3 3 4 4 4
3 3 3 3 3 2 2 2 2 2 1 1 2 1 1 1 1 1 1 2 3 3 3 3 3 3 3 3 4 2 2 3 3 3 3 3 3 3 3 3 4 4 4 4
2 2 2 2 2 2 1 1 2 2 1 1 1 1 1 1 1 2 2 3 3 3 2 2 3 4 4 4 2 2 3 3 3 3 3 3 3 3 4 4 4 4 4 4
2 2 2 2 2 2 1 1 1 1 2 2 2 2 2 2 1 1 3 2 2 3 2 2 4 6 5 2 2 2 3 3 3 3 3 3 3 3 4 4 4 4 4 4
3 3 2 2 2 2 1 1 1 1 2 2 2 2 2 2 2 3 3 3 3 4 3 4 6 6 4 2 2 3 3 3 3 3 3 3 3 3 4 4 5 5 5 5
3 3 3 3 3 3 2 2 1 1 1 2 2 3 2 2 3 2 2 3 4 4 3 4 6 5 3 2 3 3 3 3 3 3 3 3 4 4 4 4 4 5 5 5
4 3 3 3 3 2 2 2 2 2 2 2 2 2 2 2 3 3 2 3 4 4 3 3 3 3 2 3 3 3 3 3 4 3 4 4 4 4 4 5 6 5 5 5
2 2 2 2 2 3 2 2 3 3 3 3 3 2 2 2 2 2 3 3 3 3 3 3 3 3 3 3 3 3 3 3 3 4 4 4 4 4 5 6 5 5 5 6
Wind_Direction
226 199 173 194 201 202 209 214 218 225 228 237 222 203 196 183 170 151 147 133 127 122 94 67 47 32 23 10 8 10 9 6 353 343 341 340 339 337 332 327 320 312 304 295
225 210 196 214 211 209 214 214 219 226 239 237 222 199 195 184 173 176 177 169 155 110 79 55 30 16 8 4 3 8 6 355 348 345 343 342 338 335 333 331 327 323 316 307
217 208 201 231 211 206 213 213 206 222 234 224 210 203 200 193 183 182 186 185 175 162 122 67 27 7 359 357 1 8 3 352 347 342 338 336 334 334 333 329 327 324 316 312
175 180 225 237 204 197 209 220 215 220 225 212 205 192 181 172 173 181 183 186 193 152 82 40 32 22 13 10 11 5 358 350 343 338 333 331 332 331 328 324 323 319 319 317
180 210 247 273 219 190 197 225 217 220 224 213 182 152 225 212 175 178 183 169 161 123 79 39 28 16 21 18 10 5 353 342 335 331 327 325 324 322 322 323 321 320 319 318
175 193 222 237 220 188 175 238 220 207 210 204 179 198 221 185 146 146 135 107 88 67 62 52 24 18 27 15 4 352 339 329 324 324 320 316 313 312 315 316 313 315 317 318
191 210 244 247 216 140 183 230 207 194 199 194 198 212 171 136 128 127 109 88 80 77 67 43 24 24 24 11 353 338 330 325 325 325 317 310 308 309 311 314 313 315 315 316
177 203 237 228 158 181 210 185 146 163 179 181 174 153 136 130 127 116 99 79 74 74 58 38 29 24 16 1 343 336 332 330 328 326 322 320 317 314 313 311 310 314 315 314
190 208 215 136 172 247 114 148 163 158 154 150 152 153 141 134 125 111 98 80 64 72 64 41 27 21 8 347 341 335 333 330 327 327 327 325 321 317 318 319 314 316 318 317
184 218 188 84 40 22 40 81 84 107 122 130 138 141 138 133 122 105 84 69 60 64 62 33 16 13 359 343 341 334 329 329 331 331 332 332 326 321 318 317 314 315 316 315
189 184 124 86 57 76 78 81 76 67 77 106 125 126 127 122 108 94 75 59 51 49 43 20 8 4 356 348 343 339 334 334 333 332 331 330 330 326 319 313 315 313 310 309
201 189 185 177 140 102 98 83 89 97 80 66 94 112 109 103 91 81 69 56 52 43 32 11 1 355 351 347 345 343 341 339 335 331 330 330 328 325 332 332 338 336 334 328
143 79 106 119 99 75 87 76 74 81 90 83 69 81 94 92 77 69 63 54 44 26 8 358 356 351 346 346 348 345 335 330 327 328 329 331 331 329 325 331 339 345 346 342
44 97 127 126 112 82 85 82 78 72 66 67 68 68 75 79 71 66 51 24 15 10 1 354 352 344 339 342 344 339 331 323 320 321 323 323 323 321 320 322 325 325 337 345
19 42 120 116 103 89 83 87 88 78 67 57 57 66 71 76 68 40 13 8 17 19 4 354 349 337 337 340 338 332 329 326 323 320 318 317 318 318 318 317 315 316 324 336
83 83 96 111 114 101 88 93 102 100 83 69 61 59 61 68 62 19 7 17 24 359 340 339 332 325 330 333 333 330 326 327 326 320 321 322 319 317 318 318 317 319 324 330
136 145 147 150 153 143 130 123 128 132 119 108 84 57 68 68 50 18 2 358 347 316 318 323 315 320 327 330 329 323 322 323 326 326 321 316 315 315 314 314 313 314 317 330
111 148 163 164 169 163 148 124 122 131 146 152 121 102 96 99 348 319 327 341 346 336 328 315 308 324 330 327 325 320 319 318 320 316 314 315 313 313 315 315 315 316 318 328
89 110 118 127 141 147 146 144 143 140 137 132 130 140 152 245 295 308 326 350 347 332 325 325 336 351 330 321 332 327 324 322 320 318 316 317 317 317 317 316 314 315 318 322
96 97 101 101 99 115 132 135 134 131 136 136 134 132 114 297 296 301 319 305 280 275 299 317 327 329 326 324 338 330 324 321 319 318 319 318 315 314 314 314 313 314 315 315
126 119 116 115 106 105 129 144 148 154 164 155 162 191 229 271 281 271 279 297 297 302 309 316 321 319 320 322 327 325 323 319 314 311 312 311 312 312 312 312 311 311 311 312
145 140 138 134 133 138 154 151 152 153 156 174 201 215 236 274 286 283 255 253 284 311 318 313 311 311 316 322 323 320 315 310 305 303 303 304 305 306 307 309 307 306 305 306
155 158 162 167 167 166 144 151 173 179 196 211 217 224 236 251 248 251 278 275 286 301 308 301 308 313 325 335 321 310 306 303 300 298 298 297 296 296 299 302 302 302 304 304
161 167 169 157 137 139 174 226 219 219 228 238 236 230 226 247 264 248 251 282 295 301 299 296 306 319 334 324 310 304 299 295 294 294 295 294 293 293 293 295 297 299 298 299
171 166 161 163 177 201 210 202 200 222 235 251 257 249 239 230 241 266 272 274 285 295 291 298 307 315 317 297 291 288 287 285 286 288 288 290 291 291 290 291 294 295 295 294
175 182 191 200 204 201 192 186 200 220 225 254 267 254 249 248 249 259 267 271 275 281 282 284 287 291 284 280 279 281 282 287 289 286 282 284 285 287 288 290 291 290 289 289
167 173 183 217 226 211 202 200 213 226 221 227 253 255 251 254 254 260 267 273 277 278 279 280 279 275 274 275 277 278 278 279 278 278 278 277 278 280 283 285 285 285 286 286